TELSTAR 14R

Last updated on Sun Apr 12 2026 00:02:52 GMT+0000 (Coordinated Universal Time)

1 37602U 11021A 26100.87711322 -.00000279 00000+0 00000+0 0 9990 2 37602 0.0129 137.5808 0002342 246.1098 68.1872 1.00272468 55153
UTC large
Height (km)
Speed (km/s)
/
Latitude / Longitude
Inclination (degrees)
Orbital Period (minutes)
Azimuth
Elevation
Range (km)
Doppler Factor

Next 0 passes for location: London (51.5072 / 0.1276)

Sorry there are no passes over London.
TELSTAR 14R